Latest Weather Observations for Barimunya

IDW60801

Issued at 5:42 pm WST Saturday 31 January 2015 (issued every 30 minutes, with the page automatically refreshed every 10 minutes)

About weather observations | Map of weather stations | Latest weather observations for WA | Other Formats
Station Details ID: 505053 Name: BARIMUNYA Lat: -22.67 Lon: 119.16 Height: 629.17 m
Data from the previous 72 hours. | See also: Recent months for locations in Western Australia
Date/Time
WST
Temp
°C
App
Temp
°C
Dew
Point
Rel
Hum
%
Delta-T
°C
Wind Press
QNH
hPa
Press
MSL
hPa
Rain
since 9 am
mm
Dir
 
Spd
km/h
Gust
km/h
Spd
kts
Gust
kts
31/05:30pm 34.4 31.1 10.9 24 14.1 N 19 24 10 13 1008.9 1003.2 0.0
31/05:00pm 34.5 32.0 11.0 24 14.2 N 15 24 8 13 1008.7 1003.1 0.0
31/04:30pm 34.9 32.8 11.3 24 14.3 NE 13 22 7 12 1008.4 1002.7 0.0
31/04:00pm 35.2 32.5 11.6 24 14.4 NNW 17 32 9 17 1008.4 1002.7 0.0
31/03:30pm 34.6 32.7 12.9 27 13.4 NW 15 26 8 14 1008.5 1002.9 0.0
31/03:00pm 34.7 32.2 12.4 26 13.7 NW 17 28 9 15 1008.9 1003.2 0.0
31/02:30pm 33.4 30.1 14.0 31 12.2 NNE 24 35 13 19 1009.1 1003.4 0.0
31/02:00pm 33.4 31.6 14.5 32 11.9 NNW 17 30 9 16 1009.6 1003.9 0.0
31/01:30pm 34.1 32.9 16.0 34 11.7 NW 17 30 9 16 1009.9 1004.2 0.0
31/01:00pm 33.2 31.0 14.3 32 11.9 NNE 19 32 10 17 1010.2 1004.6 0.0
31/12:30pm 31.3 30.3 16.5 41 9.5 NNW 17 24 9 13 1010.6 1004.9 0.0
31/12:00pm 30.5 30.3 18.6 49 7.9 N 17 28 9 15 1010.9 1005.2 0.0
31/11:30am 29.4 29.5 19.1 54 6.8 NNW 17 28 9 15 1011.3 1005.6 0.0
31/11:00am 29.4 29.7 19.7 56 6.5 NNW 17 28 9 15 1011.8 1006.2 0.0
31/10:30am 28.0 28.4 19.8 61 5.5 NNE 17 24 9 13 1011.9 1006.3 0.0
31/10:00am 26.8 27.1 19.7 65 4.7 N 17 24 9 13 1012.3 1006.6 0.0
31/09:30am 26.3 27.4 19.7 67 4.4 N 13 24 7 13 1012.3 1006.6 0.0
31/09:00am 25.6 26.1 19.3 68 4.2 N 15 22 8 12 1012.5 1006.8 0.0
31/08:30am 24.9 26.0 19.7 73 3.4 N 13 17 7 9 1012.4 1006.7 0.0
31/08:00am 24.2 25.4 19.9 77 2.8 NE 13 19 7 10 1012.1 1006.5 0.0
31/07:35am 23.6 25.3 20.1 81 2.3 NE 11 15 6 8 1012.0 1006.4 0.0
31/07:30am 23.4 25.0 20.0 81 2.2 NNE 11 17 6 9 1012.0 1006.4 0.0
31/07:06am 23.3 24.2 20.1 82 2.1 NE 15 19 8 10 1011.6 1006.0 0.0
31/07:00am 23.2 24.5 20.2 83 2.0 NE 13 19 7 10 1011.5 1005.9 0.0
31/06:30am 23.5 24.3 19.8 80 2.4 E 15 20 8 11 1011.5 1005.9 0.0
31/06:00am 23.2 24.1 20.0 82 2.1 ESE 15 17 8 9 1011.3 1005.6 0.0
31/05:30am 23.3 24.4 20.4 84 1.9 ESE 15 19 8 10 1011.3 1005.6 0.0
31/05:00am 23.1 24.4 20.2 84 1.9 SE 13 19 7 10 1011.2 1005.5 0.0
31/04:30am 23.0 24.0 20.3 85 1.8 ESE 15 19 8 10 1011.1 1005.4 0.0
31/04:00am 22.8 23.8 20.3 86 1.7 ESE 15 19 8 10 1010.8 1005.1 0.0
31/03:30am 23.2 23.9 20.5 85 1.8 SE 17 20 9 11 1010.7 1005.0 0.0
31/03:00am 23.7 24.4 20.4 82 2.2 ESE 17 20 9 11 1010.6 1004.9 0.0
31/02:30am 23.8 24.3 20.1 80 2.5 ESE 17 22 9 12 1010.6 1004.9 0.0
31/02:00am 24.2 24.5 19.5 75 3.1 ESE 17 24 9 13 1010.4 1004.8 0.0
31/01:30am 24.6 24.2 18.8 70 3.8 ESE 19 28 10 15 1010.3 1004.7 0.0
31/01:00am 24.6 23.2 18.8 70 3.8 ESE 24 32 13 17 1010.3 1004.7 0.0
31/12:30am 26.4 25.4 18.0 60 5.4 ESE 20 26 11 14 1010.3 1004.7 0.0
31/12:00am 26.8 25.9 18.1 59 5.7 ESE 20 32 11 17 1010.4 1004.8 0.0
 
Date/Time
WST
Temp
°C
App
Temp
°C
Dew
Point
Rel
Hum
%
Delta-T
°C
Wind Press
QNH
hPa
Press
MSL
hPa
Rain
since 9 am
mm
Dir
 
Spd
km/h
Gust
km/h
Spd
kts
Gust
kts
30/11:30pm 27.1 25.2 17.6 56 6.1 E 24 33 13 18 1010.3 1004.7 0.0
30/11:00pm 29.0 29.9 17.5 49 7.5 NW 9 17 5 9 1010.7 1005.0 0.0
30/10:30pm 29.6 29.4 16.8 46 8.2 NNW 13 24 7 13 1010.2 1004.6 0.0
30/10:00pm 29.7 30.1 15.4 42 9.0 NNW 7 13 4 7 1009.7 1004.0 0.0
30/09:30pm 29.4 31.0 15.9 44 8.6 E 2 9 1 5 1009.2 1003.5 0.0
30/09:00pm 29.6 29.2 15.3 41 9.0 E 11 15 6 8 1008.6 1003.0 0.0
30/08:30pm 30.3 29.9 15.2 40 9.5 E 11 19 6 10 1008.9 1003.2 0.0
30/08:00pm 30.0 28.3 15.7 42 9.1 ESE 19 24 10 13 1008.2 1002.5 0.0
30/07:30pm 30.0 29.0 15.7 42 9.1 SSE 15 20 8 11 1007.7 1002.0 0.0
30/07:00pm 30.4 28.7 15.7 41 9.4 S 19 26 10 14 1007.3 1001.6 0.0
30/06:30pm 30.8 28.2 16.0 40 9.4 S 24 32 13 17 1007.0 1001.4 0.0
30/06:00pm 32.4 29.8 15.0 35 11.0 S 22 32 12 17 1006.8 1001.1 0.0
30/05:30pm 35.5 33.2 11.8 24 14.5 NW 15 24 8 13 1006.4 1000.7 0.0
30/05:00pm 35.5 33.6 13.1 26 14.0 WNW 15 22 8 12 1006.3 1000.6 0.0
30/04:30pm 35.5 33.6 14.2 28 13.5 WNW 17 24 9 13 1006.3 1000.6 0.0
30/04:00pm 35.5 34.2 13.6 26 13.8 NW 13 22 7 12 1006.6 1000.9 0.0
30/03:30pm 34.8 33.3 15.2 31 12.5 NW 17 28 9 15 1007.2 1001.5 0.0
30/03:00pm 34.3 32.2 13.7 29 12.9 W 17 24 9 13 1007.5 1001.8 0.0
30/02:30pm 34.3 33.3 15.7 32 12.0 NW 15 24 8 13 1007.8 1002.1 0.0
30/02:00pm 33.6 31.9 14.6 31 12.0 WNW 17 26 9 14 1008.3 1002.6 0.0
30/01:30pm 33.1 32.5 15.6 35 11.2 NNE 13 20 7 11 1008.7 1003.1 0.0
30/01:00pm 32.8 31.5 15.8 36 10.9 N 17 30 9 16 1009.4 1003.7 0.0
30/12:30pm 32.5 31.1 15.5 36 10.8 NNE 17 26 9 14 1009.8 1004.1 0.0
30/12:00pm 31.9 32.7 17.4 42 9.5 N 9 19 5 10 1010.1 1004.5 0.0
30/11:30am 30.0 30.4 16.4 44 8.7 N 9 19 5 10 1010.8 1005.1 0.0
30/11:00am 29.5 29.3 16.7 46 8.2 NNE 13 22 7 12 1011.0 1005.3 0.0
30/10:30am 28.7 29.6 17.6 51 7.2 E 9 13 5 7 1011.4 1005.7 0.0
30/10:00am 28.1 28.8 17.9 54 6.6 E 11 19 6 10 1011.6 1006.0 0.0
30/09:30am 27.5 28.2 17.9 55 6.2 E 11 17 6 9 1011.7 1006.1 0.0
30/09:00am 26.8 27.4 17.6 57 5.9 ESE 11 15 6 8 1011.9 1006.3 16.0
30/08:30am 26.3 26.9 17.6 58 5.6 SE 11 15 6 8 1011.8 1006.2 16.0
30/08:00am 25.2 26.2 17.7 63 4.8 SSE 9 15 5 8 1011.7 1006.1 16.0
30/07:30am 24.3 25.5 18.2 68 3.9 SE 9 13 5 7 1011.5 1005.9 16.0
30/07:00am 23.5 24.5 17.7 70 3.7 SSE 9 13 5 7 1011.3 1005.6 16.0
30/06:30am 23.0 25.9 18.1 74 3.1 CALM 0 9 0 5 1011.2 1005.5 16.0
30/06:00am 22.2 25.4 18.8 81 2.2 CALM 0 0 0 0 1011.0 1005.3 16.0
30/05:30am 22.0 25.1 18.6 81 2.2 CALM 0 0 0 0 1010.8 1005.1 16.0
30/05:00am 22.3 23.5 18.3 78 2.6 S 9 13 5 7 1010.4 1004.8 16.0
30/04:30am 22.3 23.2 18.3 78 2.6 S 11 17 6 9 1010.2 1004.6 16.0
30/04:00am 22.4 23.3 18.4 78 2.6 S 11 17 6 9 1010.3 1004.7 16.0
30/03:30am 22.7 22.8 18.3 76 2.8 S 15 20 8 11 1010.1 1004.5 16.0
30/03:00am 23.0 20.8 17.9 73 3.3 S 26 32 14 17 1010.0 1004.4 16.0
30/02:30am 23.5 21.3 17.9 71 3.6 S 26 41 14 22 1010.1 1004.5 16.0
30/02:00am 23.8 21.5 17.5 68 4.0 S 26 35 14 19 1009.9 1004.2 16.0
30/01:30am 24.5 21.6 16.2 60 5.2 SSW 26 39 14 21 1010.3 1004.7 16.0
30/01:00am 22.9 20.9 17.4 71 3.5 SSW 24 41 13 22 1009.8 1004.1 16.0
30/12:54am 22.6 21.7 18.2 76 2.8 SSW 20 41 11 22 1010.0 1004.4 16.0
30/12:30am 23.7 24.2 17.4 68 4.0 WNW 11 15 6 8 1008.2 1002.5 16.0
30/12:00am 22.9 23.1 17.6 72 3.4 WNW 13 20 7 11 1008.4 1002.7 16.0
 
Date/Time
WST
Temp
°C
App
Temp
°C
Dew
Point
Rel
Hum
%
Delta-T
°C
Wind Press
QNH
hPa
Press
MSL
hPa
Rain
since 9 am
mm
Dir
 
Spd
km/h
Gust
km/h
Spd
kts
Gust
kts
29/11:30pm 24.0 25.0 16.8 64 4.5 NE 7 13 4 7 1008.6 1003.0 16.0
29/11:00pm 23.0 22.4 17.5 71 3.5 N 17 26 9 14 1008.6 1003.0 16.0
29/10:59pm 23.0 22.8 17.5 71 3.5 N 15 22 8 12 1008.7 1003.1 16.0
29/10:30pm 21.7 21.7 18.1 80 2.3 NW 15 24 8 13 1010.9 1005.2 16.0
29/10:00pm 21.6 19.9 18.2 81 2.2 WNW 24 32 13 17 1012.6 1006.9 15.6
29/09:30pm 23.4 21.9 17.6 70 3.7 WNW 22 28 12 15 1013.0 1007.4 15.2
29/09:00pm 24.1 25.0 18.3 70 3.7 WSW 11 20 6 11 1012.7 1007.0 15.2
29/08:30pm 24.1 26.3 19.2 74 3.2 SW 6 11 3 6 1011.9 1006.3 15.2
29/08:00pm 23.8 24.1 19.7 78 2.7 SSE 17 24 9 13 1010.8 1005.1 15.2
29/07:30pm 24.1 24.4 18.7 72 3.5 E 15 24 8 13 1009.1 1003.4 15.2
29/07:00pm 24.6 24.2 18.8 70 3.8 SE 19 20 10 11 1008.2 1002.5 15.2
29/06:30pm 25.2 24.5 17.4 62 5.0 WSW 17 22 9 12 1008.1 1002.4 15.0
29/06:00pm 23.3 25.9 20.4 84 1.9 SW 7 15 4 8 1009.0 1003.3 14.2
29/05:40pm 22.8 24.5 18.6 77 2.7 NNW 7 13 4 7 1009.0 1003.3 13.8
29/05:30pm 23.6 25.2 17.8 70 3.7 NNE 6 11 3 6 1008.7 1003.1 13.6
29/05:00pm 23.3 21.1 19.5 79 2.5 WSW 30 43 16 23 1008.0 1002.3 3.0
29/04:57pm 23.0 20.6 19.0 78 2.6 W 30 43 16 23 1007.9 1002.2 2.8
29/04:44pm 25.2 23.0 17.9 64 4.7 S 26 54 14 29 1008.0 1002.3 0.4
29/04:30pm 24.6 21.4 18.1 67 4.2 SSE 32 43 17 23 1006.6 1000.9 0.4
29/04:13pm 25.8 23.0 17.2 59 5.5 S 28 46 15 25 1006.6 1000.9 0.4
29/04:00pm 24.9 22.9 18.3 66 4.3 SSE 26 41 14 22 1006.4 1000.7 0.2
29/03:45pm 22.0 16.9 17.8 77 2.7 SE 41 61 22 33 1007.3 1001.6 0.2
29/03:42pm 23.5 19.8 18.4 73 3.3 SE 35 56 19 30 1007.4 1001.7 0.0
29/03:38pm 27.0 24.6 18.3 59 5.7 SSE 28 54 15 29 1006.8 1001.1 0.0
29/03:30pm 28.2 24.8 17.7 53 6.8 SW 32 56 17 30 1006.5 1000.8 0.0
29/03:23pm 32.0 28.2 14.6 34 10.9 WSW 28 56 15 30 1006.2 1000.5 0.0
29/03:00pm 36.0 33.5 14.1 27 13.9 NNW 20 30 11 16 1005.6 999.9 0.0
29/02:30pm 36.8 35.1 14.7 26 14.1 N 17 32 9 17 1005.8 1000.1 0.0
29/02:00pm 35.5 34.2 14.7 28 13.3 NW 15 28 8 15 1006.5 1000.8 0.0
29/01:30pm 35.6 34.7 15.9 31 12.7 NNW 15 33 8 18 1007.0 1001.4 0.0
29/01:00pm 35.6 34.5 15.3 29 13.1 NNW 15 22 8 12 1007.7 1002.0 0.0
29/12:30pm 34.6 33.1 16.4 33 11.8 N 19 28 10 15 1008.2 1002.5 0.0
29/12:00pm 34.3 33.3 16.6 34 11.5 N 17 28 9 15 1008.9 1003.2 0.0
29/11:30am 33.5 33.5 18.0 39 10.3 N 15 24 8 13 1009.4 1003.7 0.0
29/11:00am 31.9 31.7 18.5 45 8.9 NNE 17 26 9 14 1009.8 1004.1 0.0
29/10:30am 30.7 31.0 18.8 49 7.9 N 15 24 8 13 1010.1 1004.5 0.0
29/10:00am 30.1 30.9 19.8 54 6.9 NNE 15 20 8 11 1010.4 1004.8 0.0
29/09:30am 28.6 29.1 20.1 60 5.7 NNE 17 24 9 13 1010.8 1005.1 0.0
29/09:00am 27.7 28.1 19.8 62 5.3 NE 17 24 9 13 1010.8 1005.1 1.0
29/08:30am 26.1 26.5 19.0 65 4.7 NE 15 20 8 11 1011.0 1005.3 1.0
29/08:00am 25.8 26.0 19.4 67 4.2 ENE 17 24 9 13 1011.0 1005.3 1.0
29/07:30am 25.0 24.8 19.4 71 3.7 E 19 22 10 12 1010.9 1005.2 1.0
29/07:00am 24.1 23.8 19.2 74 3.2 E 19 26 10 14 1010.7 1005.0 1.0
29/06:30am 24.1 24.6 19.2 74 3.2 ESE 15 19 8 10 1010.4 1004.8 1.0
29/06:00am 23.8 24.7 19.3 76 3.0 E 13 17 7 9 1009.7 1004.0 1.0
29/05:30am 23.9 24.5 19.4 76 3.0 ENE 15 20 8 11 1009.5 1003.8 1.0
29/05:00am 24.0 24.6 19.5 76 3.0 E 15 20 8 11 1009.3 1003.6 1.0
29/04:30am 24.5 25.0 19.3 73 3.4 E 15 20 8 11 1009.1 1003.4 1.0
29/04:00am 24.5 25.8 20.2 77 2.9 ENE 13 19 7 10 1008.6 1003.0 1.0
29/03:30am 24.3 25.5 20.0 77 2.8 NE 13 17 7 9 1008.4 1002.7 1.0
29/03:00am 24.6 25.9 20.1 76 3.0 ENE 13 19 7 10 1008.2 1002.5 1.0
29/02:30am 24.8 26.1 20.1 75 3.1 NNE 13 19 7 10 1008.1 1002.4 1.0
29/02:00am 25.1 25.9 19.9 73 3.5 NNE 15 20 8 11 1008.0 1002.3 1.0
29/01:30am 26.0 27.2 19.9 69 4.1 NNE 13 20 7 11 1007.9 1002.2 1.0
29/01:00am 26.2 27.4 19.8 68 4.3 NNE 13 19 7 10 1007.9 1002.2 1.0
29/12:30am 26.7 27.4 19.6 65 4.7 N 15 17 8 9 1007.8 1002.1 1.0
29/12:00am 27.1 27.3 19.4 62 5.1 N 17 22 9 12 1008.1 1002.4 1.0
 
Date/Time
WST
Temp
°C
App
Temp
°C
Dew
Point
Rel
Hum
%
Delta-T
°C
Wind Press
QNH
hPa
Press
MSL
hPa
Rain
since 9 am
mm
Dir
 
Spd
km/h
Gust
km/h
Spd
kts
Gust
kts
28/11:30pm 27.6 28.3 19.7 62 5.3 N 15 20 8 11 1008.5 1002.9 1.0
28/11:00pm 27.9 28.2 19.7 61 5.5 NNE 17 22 9 12 1008.5 1002.9 1.0
28/10:30pm 28.1 27.1 17.9 54 6.6 NNE 20 28 11 15 1008.5 1002.9 1.0
28/10:00pm 29.2 28.9 17.4 49 7.7 N 15 20 8 11 1008.3 1002.6 1.0
28/09:30pm 28.6 30.1 19.0 56 6.4 ENE 9 13 5 7 1008.1 1002.4 1.0
28/09:00pm 28.6 31.5 18.1 53 6.9 CALM 0 6 0 3 1008.0 1002.3 1.0
28/08:30pm 28.8 30.7 18.9 55 6.5 SE 7 11 4 6 1008.1 1002.4 1.0
28/08:00pm 28.7 29.6 19.3 56 6.3 SE 13 15 7 8 1007.9 1002.2 1.0
28/07:30pm 29.2 29.0 16.7 46 8.0 ENE 13 19 7 10 1007.3 1001.6 1.0
28/07:00pm 28.4 27.6 17.0 50 7.3 NNE 17 26 9 14 1006.9 1001.2 1.0
28/06:30pm 29.0 27.4 17.5 49 7.5 NNE 22 39 12 21 1006.9 1001.2 1.0
28/06:08pm 28.1 24.9 18.2 55 6.5 E 32 59 17 32 1006.6 1000.9 1.0
28/06:02pm 29.1 25.3 18.2 51 7.1 SE 35 59 19 32 1006.6 1000.9 0.8
28/06:00pm 27.0 23.2 17.2 55 6.3 SE 33 59 18 32 1006.4 1000.7 0.6
28/05:56pm 28.4 27.5 19.1 57 6.2 SSE 22 48 12 26 1006.4 1000.7 0.0

Other Formats:

Comma delimited format used in spreadsheet applications
http://www.bom.gov.au/fwo/IDW60801/IDW60801.99313.axf

JavaScript Object Notation format (JSON) in row-major order
http://www.bom.gov.au/fwo/IDW60801/IDW60801.99313.json